TimeEST,TemperatureF,Dew PointF,Humidity,Sea Level PressureIn,VisibilityMPH,Wind Direction,Wind SpeedMPH,Gust SpeedMPH,PrecipitationIn,Events,Conditions,WindDirDegrees,DateUTC
12:58 AM,15.6,6.6,68,29.99,10.0,SW,8.1,-,N/A,,Clear,220,2014-02-27 05:58:00
1:58 AM,15.6,6.8,68,29.97,10.0,SW,8.1,-,N/A,,Clear,220,2014-02-27 06:58:00
2:58 AM,15.1,6.8,70,29.94,10.0,SSW,8.1,-,N/A,,Clear,210,2014-02-27 07:58:00
3:58 AM,16.0,6.8,67,29.92,10.0,SSW,8.1,-,N/A,,Clear,210,2014-02-27 08:58:00
4:58 AM,17.4,6.4,62,29.91,10.0,SW,9.2,-,N/A,,Clear,220,2014-02-27 09:58:00
5:58 AM,18.5,6.6,60,29.92,10.0,SW,9.2,-,N/A,,Clear,230,2014-02-27 10:58:00
6:58 AM,18.0,7.5,64,29.94,10.0,SSW,9.2,-,N/A,,Clear,210,2014-02-27 11:58:00
7:58 AM,19.2,9.0,64,29.96,10.0,SW,6.9,-,N/A,,Clear,220,2014-02-27 12:58:00
8:58 AM,23.7,11.5,60,29.98,10.0,WSW,11.5,-,N/A,,Clear,240,2014-02-27 13:58:00
9:58 AM,26.8,10.9,51,30.00,10.0,WNW,15.0,27.6,N/A,,Partly Cloudy,290,2014-02-27 14:58:00
10:14 AM,28.4,10.4,47,29.97,10.0,WNW,18.4,24.2,N/A,,Clear,300,2014-02-27 15:14:00
10:58 AM,28.8,8.2,42,30.03,10.0,West,17.3,25.3,N/A,,Clear,270,2014-02-27 15:58:00
11:06 AM,30.2,8.6,40,30.00,10.0,West,11.5,25.3,N/A,,Clear,260,2014-02-27 16:06:00
11:58 AM,31.1,6.6,36,30.05,10.0,WNW,10.4,21.9,N/A,,Clear,290,2014-02-27 16:58:00
12:58 PM,31.1,3.6,31,30.05,10.0,NW,12.7,24.2,N/A,,Clear,310,2014-02-27 17:58:00
1:54 PM,32.0,1.4,27,30.01,10.0,West,12.7,19.6,N/A,,Clear,280,2014-02-27 18:54:00
1:58 PM,32.5,1.9,27,30.05,10.0,West,11.5,19.6,N/A,,Clear,260,2014-02-27 18:58:00
2:58 PM,32.0,-2.6,23,30.05,10.0,NW,16.1,20.7,N/A,,Clear,320,2014-02-27 19:58:00
3:58 PM,31.3,-4.0,22,30.06,10.0,NNW,8.1,18.4,N/A,,Clear,330,2014-02-27 20:58:00
4:58 PM,30.7,-2.6,24,30.06,10.0,WNW,8.1,-,N/A,,Clear,300,2014-02-27 21:58:00
5:58 PM,28.9,-0.8,28,30.07,10.0,NW,6.9,-,N/A,,Clear,310,2014-02-27 22:58:00
6:58 PM,25.2,1.0,35,30.09,10.0,WNW,5.8,-,N/A,,Clear,290,2014-02-27 23:58:00
7:58 PM,23.2,1.9,40,30.11,10.0,NW,5.8,-,N/A,,Clear,310,2014-02-28 00:58:00
8:58 PM,22.3,-0.6,37,30.13,10.0,NNW,8.1,-,N/A,,Clear,340,2014-02-28 01:58:00
9:58 PM,19.9,-0.2,41,30.15,10.0,NW,4.6,-,N/A,,Clear,320,2014-02-28 02:58:00
10:58 PM,18.1,1.8,49,30.17,10.0,NW,4.6,-,N/A,,Clear,320,2014-02-28 03:58:00
11:58 PM,17.8,1.2,48,30.15,10.0,North,4.6,-,N/A,,Clear,10,2014-02-28 04:58:00